Time,TemperatureF,DewpointF,PressureIn,WindDirection,WindDirectionDegrees,WindSpeedMPH,WindSpeedGustMPH,Humidity,HourlyPrecipIn,Conditions,Clouds,dailyrainin,SoftwareType,DateUTC
2013-07-31 00:13:00,73.9,72.1,29.95,NNE,22,5.3,-999.0,94,-99.99,,,0.00,Acu-Link.com,2013-07-31 05:13:00,
2013-07-31 00:28:00,73.6,71.1,29.95,NW,315,1.1,-999.0,92,-99.99,,,0.00,Acu-Link.com,2013-07-31 05:28:00,
2013-07-31 00:43:00,73.0,68.9,29.96,NW,315,2.7,-999.0,87,-99.99,,,0.00,Acu-Link.com,2013-07-31 05:43:00,
2013-07-31 00:58:00,72.7,65.8,29.95,NW,315,2.2,-999.0,79,-99.99,,,0.00,Acu-Link.com,2013-07-31 05:58:00,
2013-07-31 01:13:00,72.5,60.5,29.95,WNW,292,2.7,-999.0,66,-99.99,,,0.00,Acu-Link.com,2013-07-31 06:13:00,
2013-07-31 01:29:00,72.7,55.6,29.95,North,0,3.7,-999.0,55,-99.99,,,0.00,Acu-Link.com,2013-07-31 06:29:00,
2013-07-31 01:44:00,72.1,55.5,29.94,North,0,5.3,-999.0,56,-99.99,,,0.00,Acu-Link.com,2013-07-31 06:44:00,
2013-07-31 01:59:00,71.8,53.2,29.95,NNE,22,4.2,-999.0,52,-99.99,,,0.00,Acu-Link.com,2013-07-31 06:59:00,
2013-07-31 02:14:00,71.4,43.0,29.94,North,0,2.2,-999.0,36,-99.99,,,0.00,Acu-Link.com,2013-07-31 07:14:00,
2013-07-31 02:29:00,71.1,29.2,29.94,North,0,3.7,-999.0,21,-99.99,,,0.00,Acu-Link.com,2013-07-31 07:29:00,
2013-07-31 02:44:00,70.9,22.5,29.94,NE,45,3.7,-999.0,16,-99.99,,,0.00,Acu-Link.com,2013-07-31 07:44:00,
2013-07-31 03:00:00,70.5,23.6,29.96,NNW,337,2.2,-999.0,17,-99.99,,,0.00,Acu-Link.com,2013-07-31 08:00:00,
2013-07-31 03:15:00,70.7,25.1,29.96,NNE,22,3.7,-999.0,18,-99.99,,,0.00,Acu-Link.com,2013-07-31 08:15:00,
2013-07-31 03:30:00,70.9,29.0,29.96,NW,315,3.2,-999.0,21,-99.99,,,0.00,Acu-Link.com,2013-07-31 08:30:00,
2013-07-31 03:45:00,70.9,36.2,29.95,North,0,3.2,-999.0,28,-99.99,,,0.00,Acu-Link.com,2013-07-31 08:45:00,
2013-07-31 04:00:00,70.7,42.4,29.96,North,0,3.7,-999.0,36,-99.99,,,0.00,Acu-Link.com,2013-07-31 09:00:00,
2013-07-31 04:15:00,70.7,47.7,29.95,North,0,6.3,-999.0,44,-99.99,,,0.00,Acu-Link.com,2013-07-31 09:15:00,
2013-07-31 04:30:00,70.7,55.2,29.95,NNE,22,5.8,-999.0,58,-99.99,,,0.00,Acu-Link.com,2013-07-31 09:30:00,
2013-07-31 04:45:00,70.7,60.0,29.95,NNE,22,6.3,-999.0,69,-99.99,,,0.00,Acu-Link.com,2013-07-31 09:45:00,
2013-07-31 05:00:00,70.7,65.3,29.96,NNE,22,6.3,-999.0,83,-99.99,,,0.00,Acu-Link.com,2013-07-31 10:00:00,
2013-07-31 05:16:00,70.5,65.1,29.96,NNE,22,6.3,-999.0,83,-99.99,,,0.00,Acu-Link.com,2013-07-31 10:16:00,
2013-07-31 05:31:00,70.5,66.1,29.96,North,0,4.2,-999.0,86,-99.99,,,0.00,Acu-Link.com,2013-07-31 10:31:00,
2013-07-31 05:46:00,70.2,64.4,29.96,NNE,22,4.2,-999.0,82,-99.99,,,0.00,Acu-Link.com,2013-07-31 10:46:00,
2013-07-31 06:01:00,69.1,61.6,29.96,West,270,0.0,-999.0,77,-99.99,,,0.00,Acu-Link.com,2013-07-31 11:01:00,
2013-07-31 06:31:00,68.9,41.5,29.97,NNW,337,1.7,-999.0,37,-99.99,,,0.00,Acu-Link.com,2013-07-31 11:31:00,
2013-07-31 06:46:00,68.9,40.1,29.97,NNW,337,1.7,-999.0,35,-99.99,,,0.00,Acu-Link.com,2013-07-31 11:46:00,
2013-07-31 07:01:00,69.1,42.4,29.98,NNE,22,2.2,-999.0,38,-99.99,,,0.00,Acu-Link.com,2013-07-31 12:01:00,
2013-07-31 07:32:00,70.3,62.4,29.99,NNW,337,3.7,-999.0,76,-99.99,,,0.00,Acu-Link.com,2013-07-31 12:32:00,
2013-07-31 07:47:00,71.1,69.0,30.00,WNW,292,2.7,-999.0,93,-99.99,,,0.00,Acu-Link.com,2013-07-31 12:47:00,
2013-07-31 08:02:00,70.9,68.8,30.01,NNW,337,3.2,-999.0,93,-99.99,,,0.00,Acu-Link.com,2013-07-31 13:02:00,
2013-07-31 08:17:00,70.9,69.7,30.01,NNW,337,6.8,-999.0,96,-99.99,,,0.00,Acu-Link.com,2013-07-31 13:17:00,
2013-07-31 08:32:00,71.6,70.4,30.01,North,0,5.3,-999.0,96,-99.99,,,0.00,Acu-Link.com,2013-07-31 13:32:00,
2013-07-31 08:47:00,76.3,74.1,30.01,NNE,22,4.7,-999.0,93,-99.99,,,0.00,Acu-Link.com,2013-07-31 13:47:00,
2013-07-31 09:02:00,75.0,72.5,30.01,NW,315,3.2,-999.0,92,-99.99,,,0.00,Acu-Link.com,2013-07-31 14:02:00,
2013-07-31 09:17:00,77.5,73.7,30.01,NW,315,2.7,-999.0,88,-99.99,,,0.00,Acu-Link.com,2013-07-31 14:17:00,
2013-07-31 09:32:00,80.8,74.0,30.00,NE,45,4.7,-999.0,80,-99.99,,,0.00,Acu-Link.com,2013-07-31 14:32:00,
2013-07-31 09:48:00,77.7,73.2,30.00,North,0,5.8,-999.0,86,-99.99,,,0.00,Acu-Link.com,2013-07-31 14:48:00,
2013-07-31 10:03:00,75.6,72.1,30.01,NNE,22,6.3,-999.0,89,-99.99,,,0.00,Acu-Link.com,2013-07-31 15:03:00,
2013-07-31 10:18:00,74.8,72.0,30.02,NW,315,4.2,-999.0,91,-99.99,,,0.00,Acu-Link.com,2013-07-31 15:18:00,
2013-07-31 10:33:00,74.7,71.9,30.03,NNW,337,4.2,-999.0,91,-99.99,,,0.00,Acu-Link.com,2013-07-31 15:33:00,
2013-07-31 10:48:00,76.5,73.3,30.02,NNW,337,6.8,-999.0,90,-99.99,,,0.00,Acu-Link.com,2013-07-31 15:48:00,
2013-07-31 11:03:00,79.3,73.7,30.02,North,0,7.3,-999.0,83,-99.99,,,0.00,Acu-Link.com,2013-07-31 16:03:00,
2013-07-31 11:18:00,79.9,73.9,30.02,NNW,337,7.3,-999.0,82,-99.99,,,0.00,Acu-Link.com,2013-07-31 16:18:00,
2013-07-31 11:33:00,78.4,73.2,30.03,WNW,292,5.3,-999.0,84,-99.99,,,0.00,Acu-Link.com,2013-07-31 16:33:00,
2013-07-31 11:48:00,80.8,73.7,30.02,NW,315,4.2,-999.0,79,-99.99,,,0.00,Acu-Link.com,2013-07-31 16:48:00,
2013-07-31 12:04:00,77.9,72.7,30.01,NW,315,5.8,-999.0,84,-99.99,,,0.00,Acu-Link.com,2013-07-31 17:04:00,
2013-07-31 12:19:00,77.7,72.5,30.01,NW,315,4.2,-999.0,84,-99.99,,,0.00,Acu-Link.com,2013-07-31 17:19:00,
2013-07-31 12:34:00,75.9,72.1,30.01,NW,315,4.7,-999.0,88,-99.99,,,0.00,Acu-Link.com,2013-07-31 17:34:00,
2013-07-31 12:49:00,76.5,72.0,30.02,WNW,292,4.2,-999.0,86,-99.99,,,0.00,Acu-Link.com,2013-07-31 17:49:00,
2013-07-31 13:04:00,76.8,71.9,30.01,WNW,292,3.7,-999.0,85,-99.99,,,0.00,Acu-Link.com,2013-07-31 18:04:00,
2013-07-31 13:19:00,76.6,72.4,30.01,NW,315,5.3,-999.0,87,-99.99,,,0.00,Acu-Link.com,2013-07-31 18:19:00,
2013-07-31 13:34:00,76.3,71.4,30.00,NNE,22,10.9,-999.0,85,-99.99,,,0.00,Acu-Link.com,2013-07-31 18:34:00,
2013-07-31 13:49:00,77.5,71.9,29.99,NNE,22,8.9,-999.0,83,-99.99,,,0.00,Acu-Link.com,2013-07-31 18:49:00,
2013-07-31 14:04:00,77.9,71.9,30.01,NNE,22,7.8,-999.0,82,-99.99,,,0.00,Acu-Link.com,2013-07-31 19:04:00,
2013-07-31 14:20:00,77.4,72.5,30.01,NNW,337,5.8,-999.0,85,-99.99,,,0.00,Acu-Link.com,2013-07-31 19:20:00,
2013-07-31 14:35:00,77.4,72.2,30.00,NNE,22,6.3,-999.0,84,-99.99,,,0.00,Acu-Link.com,2013-07-31 19:35:00,
2013-07-31 14:50:00,77.5,71.2,30.01,North,0,5.8,-999.0,81,-99.99,,,0.00,Acu-Link.com,2013-07-31 19:50:00,
2013-07-31 15:05:00,78.4,72.1,30.00,NNW,337,3.2,-999.0,81,-99.99,,,0.00,Acu-Link.com,2013-07-31 20:05:00,
2013-07-31 15:20:00,80.4,72.9,29.99,NNE,22,7.8,-999.0,78,-99.99,,,0.00,Acu-Link.com,2013-07-31 20:20:00,
2013-07-31 15:35:00,83.5,72.7,29.99,NNE,22,5.8,-999.0,70,-99.99,,,0.00,Acu-Link.com,2013-07-31 20:35:00,
2013-07-31 15:50:00,86.0,72.4,29.99,East,90,1.1,-999.0,64,-99.99,,,0.00,Acu-Link.com,2013-07-31 20:50:00,
2013-07-31 16:05:00,82.9,72.1,29.99,NE,45,3.2,-999.0,70,-99.99,,,0.00,Acu-Link.com,2013-07-31 21:05:00,
2013-07-31 16:20:00,79.9,70.9,29.99,NNE,22,5.8,-999.0,74,-99.99,,,0.00,Acu-Link.com,2013-07-31 21:20:00,
2013-07-31 16:36:00,79.9,72.0,29.98,NNE,22,4.7,-999.0,77,-99.99,,,0.00,Acu-Link.com,2013-07-31 21:36:00,
2013-07-31 16:51:00,77.9,70.8,29.98,NE,45,7.3,-999.0,79,-99.99,,,0.00,Acu-Link.com,2013-07-31 21:51:00,
2013-07-31 17:06:00,79.3,72.2,29.97,NW,315,5.3,-999.0,79,-99.99,,,0.00,Acu-Link.com,2013-07-31 22:06:00,
2013-07-31 17:21:00,81.7,71.8,29.97,NNW,337,6.3,-999.0,72,-99.99,,,0.00,Acu-Link.com,2013-07-31 22:21:00,
2013-07-31 17:51:00,82.4,72.0,29.96,NW,315,2.7,-999.0,71,-99.99,,,0.00,Acu-Link.com,2013-07-31 22:51:00,
2013-07-31 18:06:00,82.8,72.0,29.96,NW,315,3.7,-999.0,70,-99.99,,,0.00,Acu-Link.com,2013-07-31 23:06:00,
2013-07-31 18:21:00,77.9,71.2,29.96,NNE,22,3.2,-999.0,80,-99.99,,,0.00,Acu-Link.com,2013-07-31 23:21:00,
2013-07-31 18:36:00,77.4,71.8,29.96,NE,45,3.7,-999.0,83,-99.99,,,0.00,Acu-Link.com,2013-07-31 23:36:00,
2013-07-31 18:52:00,78.3,71.6,29.95,NE,45,4.2,-999.0,80,-99.99,,,0.00,Acu-Link.com,2013-07-31 23:52:00,
2013-07-31 19:07:00,78.6,71.9,29.95,NNE,22,6.3,-999.0,80,-99.99,,,0.00,Acu-Link.com,2013-08-01 00:07:00,
2013-07-31 19:22:00,78.1,71.8,29.96,NE,45,2.7,-999.0,81,-99.99,,,0.00,Acu-Link.com,2013-08-01 00:22:00,
2013-07-31 19:37:00,75.9,71.4,29.96,NE,45,4.2,-999.0,86,-99.99,,,0.00,Acu-Link.com,2013-08-01 00:37:00,
2013-07-31 19:52:00,74.7,70.9,29.96,NE,45,2.2,-999.0,88,-99.99,,,0.00,Acu-Link.com,2013-08-01 00:52:00,
2013-07-31 20:07:00,74.1,71.0,29.95,NE,45,5.8,-999.0,90,-99.99,,,0.00,Acu-Link.com,2013-08-01 01:07:00,
2013-07-31 20:22:00,73.0,70.5,29.96,NE,45,2.7,-999.0,92,-99.99,,,0.00,Acu-Link.com,2013-08-01 01:22:00,
2013-07-31 20:37:00,72.1,70.0,29.97,NNE,22,2.2,-999.0,93,-99.99,,,0.00,Acu-Link.com,2013-08-01 01:37:00,
2013-07-31 20:52:00,71.4,69.6,29.97,ESE,112,1.1,-999.0,94,-99.99,,,0.00,Acu-Link.com,2013-08-01 01:52:00,
2013-07-31 21:08:00,71.1,69.6,29.97,East,90,3.2,-999.0,95,-99.99,,,0.00,Acu-Link.com,2013-08-01 02:08:00,
2013-07-31 21:23:00,70.3,68.8,29.97,East,90,2.2,-999.0,95,-99.99,,,0.00,Acu-Link.com,2013-08-01 02:23:00,
2013-07-31 21:38:00,69.8,68.3,29.97,SE,135,1.7,-999.0,95,-99.99,,,0.00,Acu-Link.com,2013-08-01 02:38:00,
2013-07-31 21:53:00,68.9,65.2,29.98,SSE,157,0.0,-999.0,88,-99.99,,,0.00,Acu-Link.com,2013-08-01 02:53:00,
2013-07-31 22:08:00,68.4,65.0,29.98,SSW,202,2.2,-999.0,89,-99.99,,,0.00,Acu-Link.com,2013-08-01 03:08:00,
2013-07-31 22:23:00,68.0,63.6,29.97,SW,225,0.0,-999.0,86,-99.99,,,0.00,Acu-Link.com,2013-08-01 03:23:00,
2013-07-31 22:38:00,67.5,61.8,29.97,WSW,247,0.0,-999.0,82,-99.99,,,0.00,Acu-Link.com,2013-08-01 03:38:00,
2013-07-31 22:53:00,67.3,58.7,29.97,West,270,0.0,-999.0,74,-99.99,,,0.00,Acu-Link.com,2013-08-01 03:53:00,
2013-07-31 23:08:00,67.1,55.8,29.98,West,270,0.0,-999.0,67,-99.99,,,0.00,Acu-Link.com,2013-08-01 04:08:00,
2013-07-31 23:23:00,66.9,52.1,29.98,WNW,292,0.0,-999.0,59,-99.99,,,0.00,Acu-Link.com,2013-08-01 04:23:00,
2013-07-31 23:38:00,67.1,45.0,29.98,WSW,247,2.2,-999.0,45,-99.99,,,0.00,Acu-Link.com,2013-08-01 04:38:00,
2013-07-31 23:53:00,66.7,44.1,29.98,SW,225,0.0,-999.0,44,-99.99,,,0.00,Acu-Link.com,2013-08-01 04:53:00,